Location: Unspecified
(58.9933°N, 5.6375°E)
Time: 21:57:56
(UTC+02:00)

Cosmos 1674 - Visible Passes

Search period start: 30 August 2015 00:00
Search period end: 09 September 2015 00:00
Orbit: 506 x 529 km, 82.5° (Epoch: 29 August)

Date Brightness Start Highest point End Pass type
(mag) Time Alt. Az. Time Alt. Az. Time Alt. Az.
30 Aug 2.6 00:59:33 10° NNW 01:03:28 73° W 01:03:40 71° SW visible
30 Aug 5.2 02:37:01 10° WNW 02:38:34 12° W 02:38:43 12° W visible
30 Aug 4.7 23:10:05 10° NNE 23:12:47 18° NE 23:14:19 15° E visible
31 Aug 2.6 00:45:12 10° NNW 00:49:09 83° WSW 00:49:22 78° SSW visible
31 Aug 5.1 02:22:20 10° NW 02:24:19 13° W 02:24:25 13° W visible
31 Aug 4.8 22:55:54 10° NNE 22:58:22 16° NE 23:00:01 13° E visible
01 Sep 2.5 00:30:53 10° NNW 00:34:49 86° ENE 00:35:03 78° SSE visible
01 Sep 5.0 02:07:45 10° NW 02:10:04 15° W 02:10:06 15° W visible
01 Sep 4.9 22:41:44 10° NNE 22:43:57 15° NE 22:45:43 12° E visible
02 Sep 2.6 00:16:33 10° NNW 00:20:29 76° ENE 00:20:45 71° ESE visible
02 Sep 4.9 01:53:13 10° NW 01:55:49 17° W 01:55:49 17° W visible
02 Sep 5.0 22:27:35 10° NNE 22:29:31 13° NE 22:31:25 10° E visible
03 Sep 2.7 00:02:13 10° N 00:06:09 67° ENE 00:06:27 63° ESE visible
03 Sep 4.7 01:38:43 10° NW 01:41:30 19° W 01:41:30 19° W visible
03 Sep 5.1 22:13:31 10° NNE 22:15:04 12° NE 22:16:43 10° ENE visible
03 Sep 2.8 23:47:54 10° N 23:51:47 58° ENE 23:52:10 55° E visible
04 Sep 4.6 01:24:15 10° NW 01:27:13 21° W 01:27:13 21° W visible
04 Sep 5.1 21:59:34 10° NNE 22:00:37 11° NE 22:01:47 10° ENE visible
04 Sep 3.0 23:33:35 10° N 23:37:25 51° ENE 23:37:52 48° E visible
05 Sep 4.5 01:09:47 10° NW 01:12:55 24° W 01:12:55 24° W visible
05 Sep 3.2 23:19:16 10° N 23:23:03 45° ENE 23:23:35 42° E visible
06 Sep 4.3 00:55:21 10° NNW 00:58:38 27° W 00:58:38 27° W visible
06 Sep 3.4 23:04:58 10° N 23:08:39 40° ENE 23:09:18 36° E visible
07 Sep 4.1 00:40:55 10° NNW 00:44:21 30° W 00:44:21 30° W visible
07 Sep 3.6 22:50:38 10° N 22:54:15 35° ENE 22:55:02 32° E visible
08 Sep 3.9 00:26:29 10° NNW 00:30:03 34° W 00:30:05 34° W visible
08 Sep 3.7 22:36:20 10° N 22:39:51 31° ENE 22:40:45 28° E visible
